Vertical_Velocity
-1 -2 -1 2 0 -1 -0 -0 1 -0 1 -0 -1 -1 0 -0 1 -0 1 -0 -1 1 1 1 0 1 -1 -6 -5 -4 -5 3 -1 -0 -0 -1 -1 0 -1 -2 -1 -2 -2
-2 -3 1 1 -1 -0 1 0 1 1 0 -1 -0 0 -0 -1 -0 -0 1 -1 -1 -1 5 2 2 2 -2 4 2 -5 4 -1 -1 1 1 0 -2 -0 -1 0 3 1 -3
-1 -1 3 1 -1 1 -1 0 1 -1 1 -1 -0 -1 -0 1 0 -2 0 -2 -2 -2 2 8 -3 15 2 5 9 -1 3 2 -1 0 1 -0 -3 -3 -3 -2 -1 1 3
5 -3 2 1 -1 1 1 -0 1 1 1 -0 0 -2 -1 0 1 -0 0 -0 -1 1 -0 20 3 19 6 19 4 1 3 3 3 -2 1 1 -3 -2 -1 -3 -3 1 1
-4 0 2 0 1 -1 -0 0 1 0 1 1 -1 -0 -2 -1 1 -1 -0 0 -2 3 -6 -8 -7 19 10 4 9 0 -2 -1 -0 -4 -1 1 -4 -0 -1 -1 -3 -4 0
-6 0 11 -3 1 -1 -1 -1 -2 0 -2 2 0 1 -2 0 -1 -0 -1 -1 -2 -3 2 -7 5 -4 -8 -2 -4 -8 -1 3 0 1 0 -0 -4 -2 -2 1 1 -1 -0
-2 -2 7 2 -0 -2 1 -0 1 -1 -1 -3 1 -0 -1 -1 -0 1 -2 -1 2 -1 -2 -7 3 3 -3 1 -2 -2 2 2 -3 -0 -0 1 -3 -2 -2 -3 1 -3 -2
-3 -0 9 0 2 -2 -4 -1 0 -1 -3 -1 -3 6 -0 -3 -1 -0 0 0 -2 -3 -2 0 7 0 1 -0 -3 1 -2 2 1 -4 -2 3 -0 -3 -1 -2 -2 -3 -1
-1 4 2 -1 -0 1 -0 2 -0 -1 2 -2 -1 -2 -3 -6 -3 -0 0 -3 -1 -0 1 -0 -1 -2 -0 2 1 -0 -3 -0 -1 -3 -0 2 -3 -1 0 -0 -3 -2 -2
-2 3 3 -2 4 3 -3 1 1 2 -3 2 -1 -1 -1 3 -2 -1 -4 8 -8 -6 -4 -4 -1 -4 -3 -1 -1 -2 -0 -3 -1 -2 -4 2 -3 -1 -0 2 -1 -2 0
-2 2 -0 -0 -4 1 0 -1 -0 -4 -0 -3 1 -0 -0 1 1 -4 1 -6 -5 -0 -1 -0 -2 -1 0 -1 -0 0 -1 -3 -1 -1 -3 -3 -2 2 0 -1 2 1 0
2 0 -4 -3 0 2 -1 -0 2 -3 2 0 0 -1 0 -1 2 4 3 -1 1 1 -1 -2 -0 -1 -1 -2 -1 1 1 -2 -0 -1 -1 -6 -1 -0 -2 -1 -2 -0 1
-3 -4 -4 -6 -3 2 -2 -2 -2 -2 1 -1 1 3 1 -0 -1 -1 -3 0 -1 0 -1 1 -1 1 -0 -0 -1 -0 -3 -3 -1 -1 -1 -2 -1 -2 -3 -3 -2 -3 -2
5 8 2 -2 1 4 1 -1 -2 1 -0 0 -1 -2 3 -1 -1 -1 2 -1 -3 -0 2 4 0 -1 -1 0 -1 -0 -1 -1 -1 0 -1 -1 -1 -0 -2 -1 -0 -1 -2
5 14 8 4 3 3 4 3 0 0 0 2 0 -1 0 0 1 -2 1 -0 2 -5 1 2 -2 -1 -1 0 -0 1 1 0 -2 0 -1 -3 -1 -1 -1 -1 -0 -1 -1
-0 3 9 6 5 6 6 2 -2 -1 -1 1 -1 -2 0 0 1 -2 0 0 -2 -1 -2 -1 3 2 -1 -1 1 1 -1 1 -0 1 -2 1 0 -1 -2 -2 -2 -1 -0
-0 -20 3 5 9 8 5 2 2 3 1 3 1 0 1 2 0 0 1 -1 1 -4 -2 -2 -1 1 -2 -0 -1 -2 -0 -0 2 2 -1 0 -1 -0 -0 1 0 -1 -2
-9 -8 -15 3 6 8 8 6 -2 2 1 -1 2 -1 -1 -0 -2 1 -1 -0 2 0 1 0 -0 -2 1 0 1 -0 -2 -1 2 1 1 1 -2 -0 -1 -0 1 1 -1
-13 51 -18 -7 -12 -1 1 5 5 7 4 3 1 3 3 2 -2 -3 -1 -2 2 4 -3 -0 3 2 0 2 -1 1 0 -2 -1 -1 2 3 -1 -1 -0 0 0 1 0
6 -17 15 29 0 -12 -7 2 -1 7 11 3 6 3 2 2 2 -2 4 2 -10 -2 3 0 -4 -1 1 -2 1 1 -1 4 -3 -0 0 -1 -1 1 1 -2 -1 -1 1
7 1 -3 -2 -19 -16 -1 -19 4 -0 6 5 -3 11 18 22 -7 -4 40 18 -9 27 -3 -2 -3 3 -1 -0 5 13 1 1 1 -1 -5 1 2 1 3 3 -1 -0 -1
-0 14 -18 -9 -14 37 6 10 2 -42 38 11 -1 46 51 6 24 -10 -5 8 -17 -6 -10 -19 -2 -1 2 -3 -6 1 0 -0 -4 7 3 1 2 1 1 1 2 1 0
-3 3 12 -5 -8 2 2 62 19 -4 38 -14 -16 3 -17 -14 -28 -1 -0 8 -3 -0 -6 3 3 5 -3 6 6 3 0 2 1 -0 -5 -4 -0 3 1 1 -0 3 1
-1 -6 0 1 -2 30 -4 43 3 -7 -3 3 3 -13 -6 1 1 -0 6 -4 6 2 -2 5 2 -2 5 1 5 2 1 2 0 -1 -3 -2 0 2 -1 3 2 0 1
1 4 -1 -11 -32 13 -3 -11 12 13 6 -12 -0 9 0 2 5 1 -1 4 1 -1 3 1 3 4 3 -0 4 1 -2 3 3 3 -1 0 0 2 2 0 -0 2 -0
3 -10 12 16 -3 -19 19 -21 5 -2 -5 1 10 -5 -3 -0 3 -1 -0 1 -8 3 1 1 2 2 4 3 2 -1 -0 2 1 -5 4 0 0 2 -0 1 -0 2 3
Height
3177 3180 3182 3185 3187 3189 3191 3193 3195 3197 3198 3199 3200 3201 3202 3203 3204 3206 3206 3207 3207 3208 3208 3209 3208 3208 3209 3210 3211 3212 3212 3213 3214 3215 3215 3216 3216 3217 3217 3217 3216 3215 3213
3174 3178 3181 3183 3186 3188 3190 3192 3194 3195 3196 3198 3199 3200 3201 3203 3204 3205 3206 3206 3207 3207 3207 3207 3207 3207 3209 3210 3210 3211 3212 3214 3215 3216 3216 3217 3217 3217 3217 3217 3216 3215 3214
3171 3176 3179 3182 3185 3186 3188 3190 3192 3193 3195 3196 3198 3199 3200 3202 3203 3203 3204 3205 3205 3206 3206 3206 3207 3206 3207 3208 3208 3211 3213 3214 3215 3215 3216 3216 3217 3217 3217 3216 3216 3215 3213
3168 3173 3176 3179 3182 3184 3186 3188 3191 3192 3194 3195 3197 3198 3200 3201 3202 3202 3203 3204 3204 3204 3205 3204 3205 3205 3205 3206 3209 3212 3214 3215 3215 3217 3217 3217 3217 3217 3217 3215 3214 3212 3210
3165 3169 3173 3176 3179 3181 3184 3186 3188 3191 3192 3194 3196 3197 3199 3200 3201 3202 3203 3203 3203 3202 3204 3206 3205 3203 3206 3209 3210 3213 3215 3216 3216 3217 3217 3217 3217 3216 3215 3213 3212 3210 3208
3162 3166 3169 3173 3175 3178 3181 3183 3186 3188 3190 3192 3194 3196 3198 3199 3200 3201 3202 3203 3203 3203 3204 3206 3206 3207 3208 3211 3212 3214 3215 3216 3216 3217 3217 3216 3215 3215 3214 3211 3209 3208 3206
3158 3161 3166 3169 3171 3175 3177 3180 3183 3185 3188 3189 3192 3193 3195 3197 3199 3199 3200 3201 3203 3203 3204 3208 3208 3209 3210 3211 3213 3214 3215 3215 3216 3216 3215 3214 3213 3212 3211 3208 3206 3205 3203
3154 3158 3162 3165 3167 3170 3173 3176 3179 3182 3184 3187 3189 3192 3193 3196 3197 3198 3199 3200 3200 3201 3204 3206 3207 3209 3210 3212 3213 3214 3214 3214 3213 3213 3212 3211 3210 3209 3207 3204 3202 3201 3200
3149 3153 3157 3160 3163 3167 3170 3173 3176 3178 3181 3185 3186 3189 3189 3192 3194 3196 3197 3198 3199 3201 3202 3204 3207 3208 3209 3210 3211 3211 3211 3211 3210 3209 3209 3208 3207 3206 3204 3201 3200 3198 3197
3143 3148 3152 3155 3159 3163 3166 3169 3172 3175 3178 3181 3184 3186 3187 3190 3191 3193 3194 3195 3197 3198 3201 3202 3204 3205 3206 3207 3208 3208 3208 3207 3207 3206 3206 3204 3203 3203 3201 3200 3197 3194 3193
3138 3142 3146 3150 3155 3159 3162 3165 3168 3170 3174 3177 3180 3183 3184 3186 3188 3190 3192 3193 3194 3196 3197 3199 3200 3201 3202 3202 3202 3203 3203 3202 3202 3202 3201 3200 3199 3198 3198 3196 3194 3191 3188
3131 3136 3141 3145 3149 3153 3157 3161 3164 3167 3170 3173 3176 3178 3180 3183 3185 3187 3189 3190 3191 3192 3193 3194 3195 3196 3197 3198 3198 3199 3199 3198 3197 3197 3196 3195 3195 3195 3193 3191 3189 3188 3185
3125 3130 3135 3139 3143 3148 3152 3155 3158 3162 3165 3168 3171 3174 3176 3178 3180 3182 3184 3185 3187 3188 3188 3189 3190 3192 3193 3193 3194 3194 3193 3192 3192 3191 3191 3190 3190 3189 3187 3186 3185 3184 3182
3121 3125 3129 3133 3137 3141 3145 3149 3153 3156 3160 3163 3165 3168 3171 3173 3175 3177 3179 3180 3181 3183 3183 3184 3185 3186 3186 3187 3188 3188 3188 3187 3186 3186 3185 3185 3184 3183 3183 3181 3180 3178 3176
3110 3116 3121 3125 3129 3133 3138 3141 3145 3149 3153 3156 3160 3162 3165 3167 3169 3171 3173 3175 3176 3177 3179 3179 3179 3180 3181 3181 3182 3182 3182 3182 3181 3180 3179 3178 3178 3177 3176 3175 3173 3172 3170
3098 3104 3111 3117 3121 3126 3130 3133 3137 3141 3145 3149 3152 3155 3158 3160 3162 3164 3166 3168 3170 3171 3172 3173 3174 3175 3174 3175 3175 3175 3175 3175 3175 3174 3173 3173 3172 3171 3171 3169 3168 3166 3164
3086 3092 3099 3105 3111 3117 3121 3124 3128 3133 3137 3140 3143 3146 3150 3152 3154 3157 3159 3160 3162 3163 3164 3166 3167 3167 3168 3168 3169 3168 3168 3168 3167 3167 3167 3166 3165 3164 3163 3162 3160 3159 3157
3073 3079 3086 3092 3099 3105 3110 3115 3119 3124 3126 3130 3134 3136 3140 3143 3145 3147 3149 3151 3154 3155 3156 3158 3159 3159 3160 3161 3160 3160 3160 3160 3160 3159 3159 3159 3157 3156 3155 3153 3151 3150 3149
3061 3059 3073 3078 3085 3091 3097 3102 3108 3113 3117 3121 3124 3127 3130 3133 3136 3138 3139 3140 3144 3146 3147 3148 3150 3150 3151 3151 3152 3152 3152 3152 3152 3152 3151 3150 3149 3148 3147 3146 3144 3142 3140
3054 3058 3061 3066 3073 3080 3085 3090 3095 3101 3105 3109 3113 3115 3119 3122 3124 3127 3129 3129 3132 3135 3137 3138 3139 3141 3141 3142 3142 3142 3143 3142 3142 3142 3142 3141 3140 3139 3137 3136 3134 3133 3132
3044 3049 3053 3057 3060 3065 3070 3076 3081 3087 3091 3096 3101 3104 3107 3110 3112 3113 3112 3118 3117 3120 3124 3127 3127 3128 3129 3130 3132 3133 3133 3132 3131 3133 3132 3131 3130 3130 3128 3126 3125 3124 3123
3033 3038 3042 3046 3048 3047 3056 3061 3069 3071 3073 3083 3083 3089 3088 3094 3095 3102 3105 3108 3108 3112 3112 3113 3115 3117 3119 3121 3122 3123 3123 3120 3121 3124 3122 3122 3121 3120 3119 3117 3115 3114 3113
3017 3025 3027 3035 3037 3042 3043 3043 3053 3055 3061 3065 3070 3073 3080 3082 3086 3089 3092 3095 3095 3097 3098 3103 3105 3108 3108 3111 3111 3111 3112 3111 3112 3113 3112 3111 3110 3109 3108 3107 3105 3104 3103
3008 3013 3016 3021 3027 3030 3033 3033 3041 3046 3049 3054 3060 3063 3067 3072 3075 3078 3082 3083 3084 3086 3088 3092 3095 3098 3098 3098 3099 3100 3100 3101 3101 3101 3101 3101 3100 3100 3098 3097 3096 3095 3093
2992 2998 3004 3009 3014 3016 3023 3027 3029 3033 3037 3041 3047 3049 3055 3059 3063 3066 3068 3071 3074 3075 3078 3081 3083 3085 3086 3088 3088 3089 3089 3089 3090 3091 3090 3090 3090 3089 3088 3086 3086 3085 3084
2981 2985 2988 2992 2997 3004 3007 3013 3016 3021 3026 3030 3035 3036 3041 3047 3051 3053 3057 3060 3061 3064 3067 3069 3071 3072 3074 3076 3077 3078 3078 3079 3079 3079 3080 3079 3079 3079 3077 3077 3077 3077 3077